Regional Weather Roundup
Issued by NWS Wakefield, VA

Home | Current Version | Previous Version | Graphics & Text | Print | Product List | Glossary On
Versions: 1 2 3 4 5 6 7 8 9 10 11 12 13 14 15 16 17 18 19 20 21 22 23 24 25 26 27 28 29 30 31 32 33 34 35 36 37 38 39 40 41 42 43 44 45 46 47 48 49 50
000
ASUS41 KAKQ 010910
RWRAKQ

REGIONAL WEATHER ROUNDUP
NATIONAL WEATHER SERVICE WAKEFIELD VA
400 AM EST SUN FEB 01 2015

Note: "fair" indicates few or no clouds below 12,000 feet with no
significant weather and/or obstructions to visibility. * = Denotes
station may not report precipitation (e.g., rain,snow,etc.),
thunder or fog.

VAZ042-051-052>054-056-011000-
NORTHERN VIRGINIA

CITY           SKY/WX    TMP DP  RH WIND       PRES   REMARKS
WASH NATIONAL  CLOUDY    27  18  69 SW3       30.29S
DULLES         CLOUDY    23  17  78 CALM      30.26F
FORT BELVOIR   MOCLDY    22  17  81 NW2       30.29S
QUANTICO       MOCLDY    25  17  72 NW3       30.30S
FREDERICKSBRG* CLOUDY    26  18  72 CALM      30.28R
STAFFORD*      CLOUDY    24  17  74 CALM      30.32R
WARRENTON      CLOUDY    25  23  93 CALM      30.26S
CULPEPER*      CLOUDY    25  19  80 CALM      30.26S
MANASSAS*      CLOUDY    21  19  93 CALM      30.27F
LEESBURG*      CLOUDY    27  21  80 CALM      30.26S
WINCHESTER     CLOUDY    30  12  47 CALM      30.22F
FRONT ROYAL*   CLOUDY    27  19  74 CALM      30.22F
LURAY*         CLOUDY    30  23  74 CALM      30.21F
$$

VAZ048-049-060>072-079>083-011000-
CENTRAL AND SOUTH CENTRAL VIRGINIA

CITY           SKY/WX    TMP DP  RH WIND       PRES   REMARKS
RICHMOND       MOCLDY    26  15  63 N3        30.27R
CHESTERFIELD*  PTSUNNY   27   9  46 CALM      30.27R
PETERSBURG*    MOCLDY    28  24  84 CALM      30.27R
HANOVER        PTCLDY    24  13  62 CALM      30.28S
TAPPAHANNOCK*  MOCLDY    23  16  72 CALM      30.28F
QUINTON*       FAIR      23  18  82 CALM      30.27S
CHARLOTTSVILLE CLOUDY    29  10  45 W3        30.24S
GORDONSVILLE*  CLOUDY    27  16  63 CALM      30.24F
ORANGE*        CLOUDY    28  19  69 CALM      30.26F
LOUISA*        CLOUDY    28  14  54 CALM      30.23F
BUMPASS*       FAIR      26  11  52 CALM      30.26R
FARMVILLE*     CLOUDY    32  20  62 CALM      30.24R
CREWE*         CLOUDY    30  21  68 CALM      30.24R
FORT PICKETT*  CLOUDY    31  17  55 CALM      30.25R
CHASE CITY*    FAIR      33  22  66 CALM      30.25S
CLARKSVILLE*   FAIR      32  18  55 CALM      30.24S
SOUTH HILL*    CLOUDY    32  14  46 CALM      30.31S
LAWRENCEVILLE* FAIR      30  19  65 CALM      30.25R
EMPORIA*       CLOUDY    30  23  74 CALM      30.28R
$$

VAZ088>098-011000-
SOUTHEAST VIRGINIA

CITY           SKY/WX    TMP DP  RH WIND       PRES   REMARKS
NORFOLK        PTCLDY    28  19  69 CALM      30.27S
VIRGINIA BEACH MOCLDY    25  18  74 CALM      30.27S
NORFOLK NAVAL  MOCLDY    31  17  56 CALM      30.28S
WEST POINT*    CLOUDY    26  19  76 CALM      30.30R
SALUDA*        FAIR      24  20  88 CALM      30.27F
NEWPORT NEWS   PTCLDY    26  19  74 CALM      30.27S
LANGLEY AFB    CLOUDY    25  20  82 CALM      30.27S
FORT EUSTIS    CLOUDY    26  19  75 E2        30.25F
WILLIAMSBURG*    N/A     27  21  80 CALM      30.27F
HR EXEC AP*    FAIR      27  19  74 CALM      30.28F
FRANKLIN*      CLOUDY    27  23  84 CALM      30.27F
WAKEFIELD      MOCLDY    27  19  72 CALM      30.26F
$$

VAZ020-022-025-037-045-011000-
WEST CENTRAL AND SOUTHWEST VIRGINIA

CITY           SKY/WX    TMP DP  RH WIND       PRES   REMARKS
STAUNTON*      CLOUDY    29  22  73 CALM      30.23S
WAYNESBORO*    CLOUDY    35   5  27 W3        30.20S
HOT SPRINGS VA MOCLDY    28   3  35 W9        30.09S
LYNCHBURG      CLOUDY    32  17  54 CALM      30.23F
DANVILLE       CLOUDY    32  18  56 CALM      30.25S
SOUTH BOSTON*  PTSUNNY   30  20  64 CALM      30.25S
MARTINSVILLE   CLOUDY    31  20  64 CALM      30.24F
ROANOKE        CLOUDY    37  12  35 NW5       30.24S
BLACKSBURG     CLOUDY    31  14  48 CALM      30.22S
DUBLIN*        CLOUDY    32  21  64 CALM      30.19F
MARION*        CLOUDY    34  12  39 W3        30.19F
HILLSVILLE*    CLOUDY    35   0  23 N3        30.15F
RICHLANDS*     CLOUDY    33   8  35 CALM      30.15F
WISE*          CLOUDY    34  12  40 CALM      30.15F
ABINGDON*      CLOUDY    36  15  43 CALM      30.17F
$$

MDZ021>025-VAZ099-100-011000-
SOUTHERN MARYLAND AND THE DELMARVA PENINSULA

CITY           SKY/WX    TMP DP  RH WIND       PRES   REMARKS
PATUXENT RIVER CLEAR     20  13  74 CALM      30.27F
BAY BRIDGE APT   N/A     23  19  86 CALM      30.28S
LEONARDTOWN    CLEAR     21  12  68 CALM      30.29F
DOVER          CLEAR     20  15  79 S5        30.27F
GEORGETOWN     CLEAR     18  12  77 CALM      30.28F
EASTON         CLEAR     21  17  86 CALM      30.31S
CAMBRIDGE      CLEAR     23  18  80 CALM      30.28S
SALISBURY      CLEAR     18  11  74 CALM      30.29S
OCEAN CITY     CLEAR     21  13  71 CALM      30.29S
WALLOPS ISLAND CLEAR     20  14  77 N3        30.29F
ACCOMACK*      CLEAR     21  14  73 E5        30.29S
$$

NCZ012>017-030>032-011000-
NORTH CENTRAL AND EASTERN NORTH CAROLINA

CITY           SKY/WX    TMP DP  RH WIND       PRES   REMARKS
ROANOKE RAPIDS FAIR      32  19  59 CALM      30.27R
RALEIGH        CLOUDY    36  17  46 SW3       30.27S
ELIZABETH CITY PTCLDY    31  22  69 S3        30.28S
AHOSKIE*       CLOUDY    31  22  68 CALM      30.27S
EDENTON*       PTCLDY    37  23  56 SW6       30.27F
CURRITUCK*     PTCLDY    31  24  75 CALM      30.28S
KILL DEVIL HLS PTCLDY    34  26  73 SW3       30.27S
MANTEO         PTCLDY    34  27  75 SW6       30.29S
CAPE HATTERAS  CLEAR     37  25  61 W6        30.30S
TARBORO*       FAIR      32  27  82 SW3       30.29S
GOLDSBORO      CLOUDY    35  25  65 CALM      30.28S
WASHINGTON     CLOUDY    35  20  56 SW3       30.29F
GREENVILLE     CLOUDY    36  19  51 SW5       30.29S
NEW BERN       MOCLDY    36  23  59 SW6       30.32S
WILMINGTON     PTCLDY    33  29  85 CALM      30.32S
$$

VAZ048-011000-
ELSEWHERE

CITY           SKY/WX    TMP DP  RH WIND       PRES   REMARKS
HARRISBURG PA  CLOUDY    17  11  77 CALM      30.23F
BALTIMORE      MOCLDY    18  12  77 CALM      30.26S
ANNAPOLIS      FAIR      22  15  75 CALM      30.27S
ANDREWS AFB    MOCLDY    20  15  78 SW2       30.26F
PHILADELPHIA   MOCLDY    24  13  62 W6        30.26S
HENDERSON NC   MOCLDY    32  21  63 CALM      30.25S
GREENSBORO     CLOUDY    37  17  44 CALM      30.22F
ROCKY MOUNT    CLOUDY    34  20  56 S3        30.28S
$$

VAZ100-011000-
MARINE

STATION/POSITION TIME  TEMP    WIND        PRES    WAVE   SWELL
                       AIR SEA DIR/SP/G            HT/PER HT/PER
                 (UTC) (F)     (DEG/KT/KT) (MB)    (FT/S) (FT/S)
BRANDYWINE LGT   0900   29 35  290/  9/ 10 1025.5S
CAPE MAY NJ      0900   29 33              1024.9S
LEWES DE         0900   26 34  280/  5/  5 1025.3S
15NM E FENWICK I 0900   32 39              1025.0S   2/ 4
OCEAN-CITY-INLET 0900   26 36  320/  2/  3 1025.3R
WACHAPREAGUE VA  0900   24 33   CALM  /  1 1025.6S
THOMAS POINT MD  0900   29 35  240/  6/  6 1026.3F
GOOSES REEF MD   0900   30     VRB  4/  4  1024.5S
COVE POINT MD    0900   28     250/  2/  3 1025.3R
SOLOMONS ISLAND  0900      35                N/A
BISHOPS HEAD MD  0900   30 31  110/  4/  5 1024.9F
PINEY POINT MD   0900           CALM  /  1   N/A
POTOMAC MD       0900   32        CALM     1024.4S
CAMBRIDGE MD     0900   22 33  210/  4/  5 1025.3R
LEWISETTA VA     0900   26 33     CALM     1025.1S
RAPPAHANNOCK LGT 0900           50/  8/  9 1025.8F
STINGRAY PT      0900   34      60/ 10/ 12 1025.6F
YORK RVR RNG VA  0900   36      80/  4/  5 1024.4R
YORKTOWN VA      0900   30 38   CALM  /  1 1024.8R
JAMESTOWN VA     0900   30      50/  2/  4   N/A
DOMINION TERM VA 0900   35     300/  8/  9 1024.8S
KIPTOPEKE VA     0900      41   70/  8/  9   N/A
CHES BAY BRIDGE  0900   35 38  330/  2/  2 1024.5S
CAPE HENRY VA    0900   33     300/  4/  5 1023.6S
CHESAPEAKE LGHT  0800   37     260/  4/  4 1026.1R
WILLOUBY STN VA  0900   35     290/  4/  5 1025.2S
S CRANEY ISL VA  0900          320/  3/  4 1024.9R
CAPE HENRY BUOY  0900      41                N/A     2/ 7
1ST LANDING BUOY 0900   35     360/  2/  4 1024.5F
CAPE CHARLES BUO 0900      40                N/A     2/ 7   2/ 7
OFFSHORE WE BUOY 0900      43                N/A     3/ 7   3/ 7
64NM E OF VA BCH 0900   42 48  300/  8/  8 1024.8S   4/ 8   3/ 8
DUCK PIER NC     0900   37 41  220/  7/  9 1024.4S
44100 DUCK FRF   0800      43                N/A     3/ 8
44056 DUCK FRF   0900      40                N/A     3/ 8
OREGON INLET NC  0900   38 38  230/  8/  9 1025.5R
HATTERAS NC      0900   40 41  250/  6/ 10 1026.2S


USA.gov is the U.S. government's official web portal to all federal, state and local government web resources and services.